De Queen, AR

1:24 AM CST on January 18, 2020 (GMT -0600)
Helms Sevier County

Weather History for KDEQ - October, 2019

Change the Weather History Date:

Tuesday, October 1, 2019

  Actual Average Record
Temperature  
Mean Temperature 80 °F 68 °F  
Max Temperature 91 °F 80 °F 104 °F (1938)
Min Temperature 68 °F 55 °F 35 °F (1984)
Degree Days  
Heating Degree Days 0 2  
Month to date heating degree days 2  
Since 1 July heating degree days 11  
Cooling Degree Days 14 4  
Month to date cooling degree days 4  
Year to date cooling degree days 1869  
Growing Degree Days 30 (Base 50)    
Moisture  
Dew Point 68 °F    
Average Humidity 78    
Maximum Humidity 93    
Minimum Humidity 44    
Precipitation  
Precipitation 0.00 in 0.16 in 2.70 in (1954)
Month to date precipitation 0.16  
Year to date precipitation 35.36  
Snow  
Snow - - - ()
Month to date snowfall  
Since 1 July snowfall  
Since 1 September snowfall  
Snow Depth -    
Sea Level Pressure  
Sea Level Pressure 29.99 in    
Wind  
Wind Speed 2 mph ()    
Max Wind Speed 10 mph    
Max Gust Speed -    
Visibility 6.4 miles    
Events      
T = Trace of Precipitation, MM = Missing Value Source: Averaged Metar Reports

Daily Weather History Graph

Daily Weather History Graph

Search for Another Location

Airport or City:

Astronomy

Oct. 01, 2019 Rise Set
Actual Time 7:11 AM CDT 7:02 PM CDT
Civil Twilight 6:46 AM CDT 7:27 PM CDT
Nautical Twilight 6:17 AM CDT 7:55 PM CDT
Astronomical Twilight 5:48 AM CDT 8:25 PM CDT
Moon 10:21 AM CDT (10/1) 9:24 PM CDT (10/1)
Length of Visible Light 12h 40m
Length of Day
11h 50m
Waxing Crescent, 12% of the Moon is Illuminated
Oct 1
Waxing Crescent
Oct 5
First Quarter
Oct 13
Full
Oct 21
Last Quarter
Oct 27
New

Hourly Weather History & Observations

Time (CDT) Temp. Heat Index Dew Point Humidity Pressure Visibility Wind Dir Wind Speed Gust Speed Precip Events Conditions
12:53 AM 70.0 °F - 66.9 °F 90% 29.96 in 7.0 mi Calm Calm - N/A   Clear
1:53 AM 70.0 °F - 68.0 °F 93% 29.96 in 6.0 mi Calm Calm - N/A   Clear
2:53 AM 70.0 °F - 66.9 °F 90% 29.97 in 7.0 mi Calm Calm - N/A   Clear
3:35 AM 68.0 °F - 66.0 °F 93% 29.99 in 2.0 mi Calm Calm - N/A   Clear
3:43 AM 69.1 °F - 66.0 °F 90% 29.99 in 4.0 mi Calm Calm - N/A   Clear
3:53 AM 69.1 °F - 66.0 °F 90% 29.98 in 5.0 mi Calm Calm - N/A   Clear
4:53 AM 69.1 °F - 66.0 °F 90% 29.99 in 2.0 mi Calm Calm - N/A   Clear
5:16 AM 68.0 °F - 66.0 °F 93% 30.01 in 4.0 mi Calm Calm - N/A   Clear
5:53 AM 68.0 °F - 66.0 °F 93% 30.01 in 2.0 mi Calm Calm - N/A   Clear
6:21 AM 69.1 °F - 66.0 °F 90% 30.03 in 4.0 mi ENE 3.5 mph - N/A   Clear
6:53 AM 68.0 °F - 66.0 °F 93% 30.02 in 5.0 mi Calm Calm - N/A   Clear
7:02 AM 68.0 °F - 66.0 °F 93% 30.04 in 1.8 mi Calm Calm - N/A   Clear
7:13 AM 68.0 °F - 66.0 °F 93% 30.04 in 0.8 mi Calm Calm - N/A   Clear
7:23 AM 69.1 °F - 66.0 °F 90% 30.04 in 1.8 mi Calm Calm - N/A   Clear
7:53 AM 70.0 °F - 66.9 °F 90% 30.03 in 2.0 mi Calm Calm - N/A   Clear
8:15 AM 72.0 °F - 69.1 °F 91% 30.04 in 3.0 mi Calm Calm - N/A   Clear
8:53 AM 77.0 °F - 71.1 °F 82% 30.04 in 6.0 mi NE 3.5 mph - N/A   Haze
9:53 AM 81.0 °F 85.2 °F 72.0 °F 74% 30.04 in 10.0 mi Variable 3.5 mph - N/A   Clear
10:53 AM 84.9 °F 90.7 °F 72.0 °F 65% 30.04 in 10.0 mi SSW 5.8 mph - N/A   Clear
11:53 AM 88.0 °F 92.1 °F 69.1 °F 53% 30.03 in 10.0 mi Variable 5.8 mph - N/A   Clear
12:53 PM 90.0 °F 93.6 °F 68.0 °F 48% 30.01 in 10.0 mi South 9.2 mph - N/A   Partly Cloudy
1:53 PM 91.0 °F 94.3 °F 66.9 °F 45% 29.98 in 10.0 mi SW 9.2 mph - N/A   Clear
2:53 PM 91.0 °F 93.8 °F 66.0 °F 44% 29.95 in 10.0 mi South 10.4 mph - N/A   Clear
3:53 PM 91.9 °F 95.4 °F 66.9 °F 44% 29.93 in 10.0 mi South 9.2 mph - N/A   Clear
4:53 PM 91.0 °F 93.8 °F 66.0 °F 44% 29.91 in 10.0 mi SSW 9.2 mph - N/A   Clear
5:53 PM 90.0 °F 92.8 °F 66.9 °F 46% 29.91 in 10.0 mi SSW 5.8 mph - N/A   Clear
6:53 PM 84.0 °F 87.8 °F 69.1 °F 61% 29.91 in 10.0 mi Calm Calm - N/A   Clear
7:53 PM 77.0 °F - 70.0 °F 79% 29.92 in 10.0 mi Calm Calm - N/A   Clear
8:53 PM 73.9 °F - 69.1 °F 85% 29.93 in 10.0 mi East 3.5 mph - N/A   Clear
9:53 PM 73.0 °F - 69.1 °F 87% 29.94 in 10.0 mi Calm Calm - N/A   Clear
10:53 PM 71.1 °F - 68.0 °F 90% 29.95 in 8.0 mi Calm Calm - N/A   Clear
11:53 PM 70.0 °F - 68.0 °F 93% 29.94 in 4.0 mi Calm Calm - N/A   Clear